Sugarloaf, CA

3:57 AM PST on February 10, 2016 (GMT -0800)
Big Bear City

Weather History for KL35 - November, 2012

Change the Weather History Date:

Wednesday, November 21, 2012

  Actual Average (KPSP) Record (KPSP)
Temperature  
Mean Temperature 42 °F 62 °F  
Max Temperature 59 °F 74 °F 93 °F (1924)
Min Temperature 24 °F 50 °F 26 °F (1951)
Degree Days  
Heating Degree Days 24 4  
Month to date heating degree days 42  
Since 1 July heating degree days 46  
Cooling Degree Days 0 1  
Month to date cooling degree days 69  
Year to date cooling degree days 4131  
Moisture  
Dew Point 18 °F    
Average Humidity 50    
Maximum Humidity 75    
Minimum Humidity 14    
Precipitation  
Precipitation 0.00 in 0.02 in 1.07 in (2004)
Month to date precipitation 0.31  
Year to date precipitation 4.64  
Sea Level Pressure  
Sea Level Pressure 30.20 in    
Wind  
Wind Speed 2 mph (WSW)    
Max Wind Speed 9 mph    
Max Gust Speed -    
Visibility 10 miles    
Events      
T = Trace of Precipitation, MM = Missing Value Source: NWS Daily Summary

Daily Weather History Graph

Daily Weather History Graph

Search for Another Location

Airport or City:

Trip Planner

Search our weather history database for the weather conditions in past years. The results will help you decide how hot, cold, wet, or windy it might be!

Date:

Astronomy

Nov. 21, 2012 Rise Set
Actual Time 6:26 AM PST 4:40 PM PST
Civil Twilight 5:59 AM PST 5:07 PM PST
Nautical Twilight 5:29 AM PST 5:37 PM PST
Astronomical Twilight 4:59 AM PST 6:07 PM PST
Moon 12:44 PM PST (11/21) 12:06 AM PST (11/21)
Length of Visible Light 11h 07m
Length of Day
10h 13m
Waxing Gibbous, 63% of the Moon is Illuminated
Nov 21
Waxing Gibbous
Nov 28
Full
Dec 6
Last Quarter
Dec 13
New
Dec 19
First Quarter

Hourly Weather History & Observations

Time (PST) Temp. Windchill Dew Point Humidity Pressure Visibility Wind Dir Wind Speed Gust Speed Precip Events Conditions
12:15 AM 26.6 °F - 14.0 °F 59% 30.21 in 10.0 mi Calm Calm - N/A   Clear
12:35 AM 26.6 °F - 14.0 °F 59% 30.21 in 10.0 mi Calm Calm - N/A   Clear
12:55 AM 24.8 °F - 14.0 °F 64% 30.20 in 10.0 mi Calm Calm - N/A   Clear
1:15 AM 24.8 °F - 14.0 °F 64% 30.20 in 10.0 mi Calm Calm - N/A   Clear
1:35 AM 26.6 °F 22.6 °F 15.8 °F 64% 30.20 in 10.0 mi West 3.5 mph - N/A   Clear
1:55 AM 26.6 °F - 15.8 °F 64% 30.20 in 10.0 mi Calm Calm - N/A   Clear
2:15 AM 24.8 °F - 12.2 °F 59% 30.19 in 10.0 mi Calm Calm - N/A   Clear
2:35 AM 24.8 °F - 14.0 °F 64% 30.19 in 10.0 mi Calm Calm - N/A   Clear
2:55 AM 24.8 °F - 12.2 °F 59% 30.20 in 10.0 mi Calm Calm - N/A   Clear
3:15 AM 24.8 °F - 12.2 °F 59% 30.19 in 10.0 mi Calm Calm - N/A   Clear
3:35 AM 26.6 °F - 14.0 °F 59% 30.19 in 10.0 mi Calm Calm - N/A   Clear
3:55 AM 24.8 °F - 14.0 °F 64% 30.19 in 10.0 mi Calm Calm - N/A   Clear
4:15 AM 24.8 °F - 12.2 °F 59% 30.19 in 10.0 mi Calm Calm - N/A   Clear
4:35 AM 24.8 °F - 14.0 °F 64% 30.19 in 10.0 mi Calm Calm - N/A   Clear
4:55 AM 24.8 °F 20.5 °F 14.0 °F 64% 30.20 in 10.0 mi West 3.5 mph - N/A   Clear
5:15 AM 24.8 °F - 15.8 °F 69% 30.19 in 10.0 mi Calm Calm - N/A   Clear
5:35 AM 24.8 °F 20.5 °F 17.6 °F 74% 30.20 in 10.0 mi West 3.5 mph - N/A   Clear
5:55 AM 24.8 °F 20.5 °F 17.6 °F 74% 30.20 in 10.0 mi West 3.5 mph - N/A   Clear
6:15 AM 24.8 °F - 14.0 °F 64% 30.21 in 10.0 mi Calm Calm - N/A   Clear
6:35 AM 24.8 °F - 15.8 °F 69% 30.21 in 10.0 mi Calm Calm - N/A   Clear
6:55 AM 26.6 °F - 15.8 °F 64% 30.22 in 10.0 mi Calm Calm - N/A   Clear
7:15 AM 28.4 °F 24.6 °F 19.4 °F 69% 30.22 in 10.0 mi West 3.5 mph - N/A   Clear
7:35 AM 28.4 °F - 17.6 °F 64% 30.22 in 7.0 mi Calm Calm - N/A   Clear
7:55 AM 32.0 °F - 19.4 °F 60% 30.23 in 10.0 mi Calm Calm - N/A   Clear
8:15 AM 35.6 °F 31.7 °F 24.8 °F 65% 30.23 in 10.0 mi West 4.6 mph - N/A   Clear
8:35 AM 41.0 °F 39.0 °F 23.0 °F 49% 30.23 in 10.0 mi West 3.5 mph - N/A   Clear
8:55 AM 44.6 °F 42.2 °F 24.8 °F 46% 30.23 in 10.0 mi West 4.6 mph - N/A   Clear
9:15 AM 50.0 °F - 23.0 °F 35% 30.23 in 10.0 mi West 3.5 mph - N/A   Clear
9:35 AM 53.6 °F - 23.0 °F 30% 30.23 in 10.0 mi WSW 3.5 mph - N/A   Clear
9:55 AM 55.4 °F - 21.2 °F 26% 30.23 in 10.0 mi SW 6.9 mph - N/A   Clear
10:15 AM 57.2 °F - 21.2 °F 25% 30.22 in 10.0 mi WSW 6.9 mph - N/A   Clear
10:35 AM 57.2 °F - 19.4 °F 23% 30.21 in 10.0 mi WSW 3.5 mph - N/A   Clear
10:55 AM 57.2 °F - 19.4 °F 23% 30.20 in 10.0 mi West 8.1 mph - N/A   Clear
11:15 AM 57.2 °F - 19.4 °F 23% 30.20 in 10.0 mi West 8.1 mph - N/A   Clear
11:35 AM 57.2 °F - 21.2 °F 25% 30.19 in 10.0 mi West 8.1 mph - N/A   Clear
12:15 PM 59.0 °F - 17.6 °F 20% 30.18 in 10.0 mi West 8.1 mph - N/A   Clear
12:35 PM 59.0 °F - 19.4 °F 22% 30.17 in 10.0 mi West 6.9 mph - N/A   Clear
12:55 PM 57.2 °F - 21.2 °F 25% 30.17 in 10.0 mi West 8.1 mph - N/A   Clear
1:15 PM 57.2 °F - 21.2 °F 25% 30.17 in 10.0 mi WSW 6.9 mph - N/A   Clear
1:35 PM 59.0 °F - 23.0 °F 25% 30.17 in 10.0 mi WSW 5.8 mph - N/A   Clear
1:55 PM 57.2 °F - 21.2 °F 25% 30.17 in 10.0 mi WSW 6.9 mph - N/A   Clear
2:15 PM 57.2 °F - 17.6 °F 21% 30.17 in 10.0 mi West 8.1 mph - N/A   Clear
2:35 PM 57.2 °F - 8.6 °F 14% 30.18 in 10.0 mi West 9.2 mph - N/A   Clear
2:55 PM 55.4 °F - 12.2 °F 18% 30.17 in 10.0 mi WSW 8.1 mph - N/A   Clear
3:15 PM 53.6 °F - 10.4 °F 18% 30.17 in 10.0 mi WSW 6.9 mph - N/A   Clear
3:35 PM 53.6 °F - 14.0 °F 21% 30.17 in 10.0 mi West 9.2 mph - N/A   Clear
3:55 PM 51.8 °F - 15.8 °F 24% 30.17 in 10.0 mi West 8.1 mph - N/A   Clear
4:15 PM 50.0 °F - 17.6 °F 28% 30.17 in 10.0 mi WSW 5.8 mph - N/A   Clear
4:35 PM 50.0 °F - 21.2 °F 32% 30.17 in 10.0 mi WSW 4.6 mph - N/A   Clear
4:55 PM 46.4 °F - 21.2 °F 37% 30.17 in 10.0 mi Calm Calm - N/A   Clear
5:15 PM 42.8 °F 41.1 °F 21.2 °F 42% 30.18 in 10.0 mi South 3.5 mph - N/A   Clear
5:35 PM 41.0 °F - 21.2 °F 45% 30.18 in 10.0 mi Calm Calm - N/A   Clear
5:55 PM 39.2 °F 37.0 °F 19.4 °F 45% 30.19 in 10.0 mi SSW 3.5 mph - N/A   Clear
6:15 PM 35.6 °F - 21.2 °F 56% 30.19 in 10.0 mi Calm Calm - N/A   Clear
6:35 PM 35.6 °F - 21.2 °F 56% 30.19 in 10.0 mi Calm Calm - N/A   Clear
6:55 PM 33.8 °F - 21.2 °F 60% 30.20 in 10.0 mi Calm Calm - N/A   Clear
7:15 PM 33.8 °F - 21.2 °F 60% 30.20 in 10.0 mi Calm Calm - N/A   Clear
7:35 PM 33.8 °F - 23.0 °F 65% 30.20 in 10.0 mi Calm Calm - N/A   Clear
7:55 PM 32.0 °F - 23.0 °F 69% 30.20 in 10.0 mi Calm Calm - N/A   Clear
8:15 PM 32.0 °F - 23.0 °F 69% 30.20 in 10.0 mi Calm Calm - N/A   Clear
8:35 PM 32.0 °F 28.7 °F 21.2 °F 64% 30.20 in 10.0 mi WSW 3.5 mph - N/A   Clear
8:55 PM 32.0 °F - 24.8 °F 75% 30.20 in 10.0 mi Calm Calm - N/A   Clear
9:15 PM 32.0 °F - 21.2 °F 64% 30.21 in 10.0 mi Calm Calm - N/A   Clear
9:35 PM 32.0 °F - 21.2 °F 64% 30.21 in 10.0 mi Calm Calm - N/A   Clear
9:55 PM 30.2 °F - 21.2 °F 69% 30.20 in 10.0 mi Calm Calm - N/A   Clear
10:15 PM 30.2 °F 24.3 °F 21.2 °F 69% 30.20 in 10.0 mi WSW 5.8 mph - N/A   Clear
10:35 PM 30.2 °F 26.7 °F 23.0 °F 75% 30.20 in 10.0 mi SSW 3.5 mph - N/A   Clear
10:55 PM 30.2 °F - 19.4 °F 64% 30.20 in 10.0 mi Calm Calm - N/A   Clear
11:15 PM 28.4 °F - 19.4 °F 69% 30.20 in 10.0 mi Calm Calm - N/A   Clear
11:35 PM 28.4 °F - 19.4 °F 69% 30.20 in 10.0 mi Calm Calm - N/A   Clear
11:55 PM 28.4 °F - 19.4 °F 69% 30.20 in 10.0 mi Calm Calm - N/A   Clear